Station FRMA1 - 8734383 - Fort Morgan, AL Image indicating link to RSS feed of recent meteorological observations for station FRMA1


Conditions at FRMA1 as of
(5:48 pm CDT)
2248 GMT on 05/30/2024:
     

Click on the graph icon in the table below to see a time series plot of the last five days of that observation.

5-day plot - Wind Direction Wind Direction (WDIR): SE ( 130 deg true )
5-day plot - Wind Speed Wind Speed (WSPD): 9.9 kts
5-day plot - Wind Gust Wind Gust (GST): 14.0 kts
5-day plot - Atmospheric Pressure Atmospheric Pressure (PRES):30.03 in
5-day plot - Air Temperature Air Temperature (ATMP): 83.8 °F
5-day plot - Dew Point Dew Point (DEWP): 70.7 °F
5-day plot - Visibility Visibility (VIS): 5.9 nmi
5-day plot - Heat Index Heat Index (HEAT): 88.5 °F
5-day plot - Wind Speed at 10 Meters Wind Speed at 10 meters (WSPD10M): 11.7 kts
5-day plot - Wind Speed at 20 Meters Wind Speed at 20 meters (WSPD20M): 11.7 kts
5-day plot -  Wind Speed, Wind Gust and Atmospheric Pressure Combined plot of Wind Speed, Gust, and Air Pressure
NOS Water Level Observation Network Water Level
Previous observations
TIME
(CDT)
5-day plot - Wind Direction
WDIR
 
5-day plot - Wind Speed
WSPD
kts
5-day plot - Wind Gust
GST
kts
5-day plot - Wave Height
WVHT
ft
5-day plot - Dominant Wave Period
DPD
sec
5-day plot - Average Wave Period
APD
sec
5-day plot - Mean Wave Direction
MWD
 
5-day plot - Atmospheric Pressure
PRES
in
5-day plot - Pressure Tendency
PTDY
in
5-day plot - Air Temperature
ATMP
°F
5-day plot - Water Temperature
WTMP
°F
5-day plot - Dew Point
DEWP
°F
5-day plot - Salinity
SAL
psu
5-day plot - Visibility
VIS
nmi
5-day plot - Tide (above MLLW)
TIDE
ft
2024-05-30 05:42 pm SE 9.9 13.0----30.03- 83.8- 70.9- 5.9-
2024-05-30 05:36 pm SE 9.9 15.9----30.03- 84.0- 70.7- 5.9-
2024-05-30 05:30 pmESE 9.9 14.0----30.03- 83.8- 70.5- 5.9-
2024-05-30 05:24 pmESE 9.9 15.0----30.03- 84.0- 70.3- 5.9-
2024-05-30 05:18 pm SE 11.1 14.0----30.03- 84.0- 70.3- 5.9-
2024-05-30 05:12 pmESE 8.9 15.0----30.03- 84.0- 71.2- 5.9-
2024-05-30 05:06 pmESE 9.9 15.0----30.02- 83.8- 70.7- 5.9-
2024-05-30 05:00 pmESE 11.1 15.0---------- 5.9-
2024-05-30 04:54 pmESE 11.1 13.0---------- 5.9-
2024-05-30 04:48 pmESE 11.1 15.0----30.02----- 5.9-
2024-05-30 04:42 pmESE 11.1 14.0----30.03----- 5.9-
2024-05-30 04:36 pmESE 11.1 14.0----30.03----- 5.9-
2024-05-30 04:30 pmESE 9.9 14.0----30.03- 83.3- 70.2- 5.9-
2024-05-30 04:24 pmESE 9.9 14.0----30.03- 83.1- 70.3- 5.9-
2024-05-30 04:18 pmESE 9.9 15.0----30.03- 83.1- 69.4- 5.9-
2024-05-30 04:12 pmESE 11.1 14.0----30.03- 82.9- 69.3- 5.9-
2024-05-30 04:06 pmESE 11.1 14.0----30.03- 83.1- 68.9- 5.9-
2024-05-30 04:00 pmESE 9.9 14.0----30.03-0.04 83.1- 69.6- 5.9-
2024-05-30 03:54 pmESE 9.9 14.0----30.04- 83.1- 68.7- 5.9-
2024-05-30 03:48 pmESE 8.0 14.0----30.04----- 5.9-
2024-05-30 03:42 pmESE 9.9 14.0----30.04----- 5.9-
2024-05-30 03:36 pmESE 11.1 13.0----30.05----- 5.9-
2024-05-30 03:30 pmESE 8.9 14.0----30.05- 83.5- 69.3- 5.9-
2024-05-30 03:24 pmESE 9.9 14.0----30.05- 83.3- 69.3- 5.9-
2024-05-30 03:18 pmESE 9.9 14.0----30.06- 83.3- 68.7- 5.9-
2024-05-30 03:12 pmESE 11.1 15.0----30.06- 83.3- 68.2- 5.9-
2024-05-30 03:06 pmESE 12.0 15.9----30.06- 83.3- 69.3- 5.9-
2024-05-30 03:00 pmESE 12.0 15.9----30.06+0.00 83.5- 68.2- 5.9-
2024-05-30 02:54 pmESE 12.0 15.9----30.06- 83.7- 68.7- 5.9-
2024-05-30 02:48 pmESE 11.1 15.9----30.06- 83.8- 68.0- 5.9-
2024-05-30 02:42 pmESE 12.0 15.0----30.06- 83.7- 68.5- 5.9-
2024-05-30 02:36 pmESE 13.0 15.9----30.06- 83.8- 68.7- 5.9-
2024-05-30 02:30 pm E 14.0 15.9----30.06- 83.8- 68.0- 5.9-
2024-05-30 02:24 pm E 14.0 19.0----30.06- 84.0- 68.4- 5.9-
2024-05-30 02:18 pmESE 12.0 17.1----30.06- 84.2- 67.6- 5.9-
2024-05-30 02:12 pmESE 14.0 17.1----30.06- 84.0- 67.3- 5.9-
2024-05-30 02:06 pmESE 12.0 17.1----30.06- 84.2- 68.9- 5.9-
2024-05-30 02:00 pmESE 13.0 15.9----30.06-0.02 83.8- 68.9- 5.9-
2024-05-30 01:54 pm E 12.0 17.1----30.06- 83.8- 70.2- 5.9-
2024-05-30 01:48 pmESE 11.1 15.0----30.06- 83.7- 70.2- 5.9-
2024-05-30 01:42 pm E 15.0 18.1----30.06- 83.3- 70.2- 5.9-
2024-05-30 01:36 pm E 13.0 15.9----30.06- 82.9- 71.2- 5.9-
2024-05-30 01:30 pm E 13.0 18.1----30.07- 83.1- 71.1- 5.9-
2024-05-30 01:24 pmESE 14.0 17.1----30.07- 82.9- 71.4- 5.9-
2024-05-30 01:18 pmESE 13.0 20.0----30.06- 83.5- 71.1- 5.9-
2024-05-30 01:12 pmESE 13.0 19.0----30.07- 82.9- 70.3- 5.9-
2024-05-30 01:06 pmESE 15.9 19.0----30.07- 82.9- 69.6- 5.9-
2024-05-30 01:00 pmESE 15.0 19.0----30.07-0.01 83.1- 70.3- 5.9-
2024-05-30 12:54 pmESE 14.0 19.0----30.07- 83.5- 69.3- 5.9-
2024-05-30 12:48 pm E 15.0 20.0----30.07----- 5.9-
2024-05-30 12:42 pmESE 15.9 22.0----30.07----- 5.9-
2024-05-30 12:36 pmESE 15.9 20.0----30.07----- 5.9-
2024-05-30 12:30 pmESE 14.0 20.0----30.07- 83.5- 69.3- 5.9-
2024-05-30 12:24 pmESE 15.0 21.0----30.07- 83.8- 68.5- 5.9-
2024-05-30 12:18 pmESE 15.0 21.0----30.06- 83.7- 68.5- 5.9-
2024-05-30 12:12 pm E 15.9 22.9----30.06- 83.8- 68.5- 5.9-
2024-05-30 12:06 pmESE 15.9 21.0----30.06- 83.7- 67.8- 5.9-
2024-05-30 12:00 pm E 14.0 19.0----30.06-0.03 83.8- 67.3- 5.9-
2024-05-30 11:54 am E 14.0 19.0----30.06- 84.0- 68.5- 5.9-
2024-05-30 11:48 am E 14.0 15.9----30.06- 84.0- 69.3- 5.9-
2024-05-30 11:42 amENE 12.0 15.9----30.06- 83.3- 70.2- 5.9-
2024-05-30 11:36 amENE 12.0 15.0----30.07- 82.9- 71.4- 5.9-
2024-05-30 11:30 am E 13.0 15.9----30.07- 83.1- 70.9- 5.9-
2024-05-30 11:24 amENE 13.0 15.0----30.08- 82.9- 70.2- 5.9-
2024-05-30 11:18 am E 12.0 15.0----30.08- 82.8- 70.2- 5.9-
2024-05-30 11:12 am E 13.0 15.9----30.08- 82.8- 70.2- 5.9-
2024-05-30 11:06 am E 13.0 17.1----30.08- 82.4- 70.7- 5.9-
2024-05-30 11:00 am E 12.0 14.0----30.09+0.01 82.4- 71.8- 5.9-
2024-05-30 10:54 am E 13.0 15.0----30.09- 82.2- 71.1- 5.9-
2024-05-30 10:48 am E 13.0 15.9----30.09----- 5.9-
2024-05-30 10:42 am E 13.0 17.1----30.08----- 5.9-
2024-05-30 10:36 am E 13.0 15.0----30.08----- 5.9-
2024-05-30 10:30 amENE 12.0 15.0----30.08- 81.9- 72.1- 5.9-
2024-05-30 10:24 amENE 13.0 17.1----30.08- 82.0- 71.8- 5.9-
2024-05-30 10:18 amENE 12.0 15.0----30.08- 82.0- 71.6- 5.9-
2024-05-30 10:12 amENE 14.0 15.9----30.08- 81.9- 71.4- 5.9-
2024-05-30 10:06 amENE 13.0 15.9----30.08- 81.9- 71.1- 5.9-
2024-05-30 10:00 amENE 14.0 17.1----30.08+0.01 81.7- 71.2- 5.9-
2024-05-30 09:54 amENE 14.0 17.1----30.08- 81.7- 71.1- 5.9-
2024-05-30 09:48 amENE 12.0 15.0----30.09- 81.3- 72.1- 5.9-
2024-05-30 09:42 amENE 12.0 15.0----30.09- 81.0- 71.2- 5.9-
2024-05-30 09:36 amENE 14.0 15.0----30.09- 81.0- 70.7- 5.9-
2024-05-30 09:30 amENE 14.0 15.0----30.09- 80.8- 70.7- 5.9-
2024-05-30 09:24 amENE 13.0 15.0----30.09- 80.6- 70.7- 5.9-
2024-05-30 09:18 amENE 12.0 14.0----30.09- 80.4- 71.2- 5.9-
2024-05-30 09:12 amENE 13.0 15.0----30.09- 80.4- 70.9- 5.9-
2024-05-30 09:06 amENE 13.0 15.0----30.09- 80.4- 72.0- 5.9-
2024-05-30 09:00 amENE 13.0 15.0----30.09+0.04 80.2- 71.8- 5.9-
2024-05-30 08:54 amENE 12.0 14.0----30.09- 80.4- 72.3- 5.9-
2024-05-30 08:48 amENE 12.0 15.9----30.09- 80.4- 72.5- 5.9-
2024-05-30 08:42 amENE 14.0 15.9----30.08- 80.6- 71.2- 5.9-
2024-05-30 08:36 amENE 12.0 13.0----30.08- 80.8- 72.1- 5.9-
2024-05-30 08:30 amENE 11.1 13.0----30.08- 80.6- 72.5- 5.9-
2024-05-30 08:24 amENE 11.1 12.0----30.08- 80.4- 72.5- 5.9-
2024-05-30 08:18 amENE 12.0 14.0----30.08- 80.4- 71.8- 5.9-
2024-05-30 08:12 am E 11.1 13.0----30.08- 80.2- 72.7- 5.9-
2024-05-30 08:06 amENE 12.0 13.0----30.08- 80.2- 72.5- 5.9-
2024-05-30 08:00 amENE 12.0 14.0----30.07- 79.9- 72.0- 5.9-
2024-05-30 07:54 amENE 11.1 13.0----30.08- 79.7- 72.7- 5.9-
2024-05-30 07:48 amENE 11.1 13.0----30.08- 79.7- 72.3- 5.9-
2024-05-30 07:42 amENE 12.0 13.0----30.08- 79.7- 72.7- 5.9-
2024-05-30 07:36 amENE 11.1 13.0----30.07- 79.9- 73.0- 5.9-
2024-05-30 07:30 amENE 11.1 12.0----30.07- 80.1- 73.9- 5.9-
2024-05-30 07:24 amENE 9.9 11.1----30.07- 80.4- 73.8- 5.9-
2024-05-30 07:18 amENE 9.9 12.0----30.07- 80.6- 73.9- 5.9-
2024-05-30 07:12 amENE 11.1 13.0----30.07- 80.1- 73.2- 5.9-
2024-05-30 07:06 am NE 11.1 11.1----30.07- 80.1- 73.9- 5.9-
2024-05-30 07:00 amENE 8.9 9.9----30.07- 80.1- 74.3- 5.9-
2024-05-30 06:54 amENE 8.9 9.9----30.07- 80.2- 73.9- 5.9-
2024-05-30 06:48 amENE 8.9 9.9----30.07----- 5.9-
2024-05-30 06:42 amENE 8.9 11.1----30.07----- 5.9-
2024-05-30 06:36 amENE 8.9 11.1----30.07----- 5.9-
2024-05-30 06:30 amENE 8.9 9.9----30.07- 80.4- 73.8- 5.9-
2024-05-30 06:24 amENE 8.9 9.9----30.07- 80.1- 72.7- 5.9-
2024-05-30 06:18 amENE 8.0 8.9----30.06- 80.1- 73.0- 5.9-
2024-05-30 06:12 amENE 8.0 9.9----30.06- 79.9- 73.0- 5.9-
2024-05-30 06:06 amENE 8.9 11.1----30.06- 79.9- 72.7- 5.9-
2024-05-30 06:00 amENE 8.9 9.9----30.06- 79.9- 72.9- 5.9-
2024-05-30 05:54 amENE 8.9 11.1----30.05- 79.9- 73.2- 5.9-
2024-05-30 05:48 am NE 9.9 11.1----30.05- 80.1- 73.2- 5.9-
2024-05-30 05:42 am NE 9.9 11.1----30.05- 80.1- 73.2- 5.9-
2024-05-30 05:36 amENE 8.9 9.9----30.04- 80.2- 73.6- 5.9-
2024-05-30 05:30 amENE 8.0 9.9----30.04- 80.2- 73.4- 5.9-
2024-05-30 05:24 amENE 8.0 8.9----30.04- 79.9- 73.2- 5.9-
2024-05-30 05:18 amENE 8.0 8.9----30.04- 79.7- 73.4- 5.9-
2024-05-30 05:12 amENE 7.0 8.0----30.04- 79.7- 73.2- 5.9-
2024-05-30 05:06 amENE 8.0 8.9----30.03- 79.7- 72.7- 5.9-
2024-05-30 05:00 amENE 8.0 9.9----30.03+0.01 79.9- 72.9- 5.9-
2024-05-30 04:54 amENE 8.0 9.9----30.03- 80.1- 73.6- 5.9-
2024-05-30 04:48 amENE 8.9 11.1----30.03- 80.2- 73.0- 5.9-
2024-05-30 04:42 amENE 8.9 9.9----30.03- 80.2- 73.0- 5.9-
2024-05-30 04:36 amENE 8.0 8.9----30.04- 80.4- 74.7- 5.9-
2024-05-30 04:30 amENE 8.0 8.9----30.04- 80.1- 73.9- 5.9-
2024-05-30 04:24 amENE 7.0 8.0----30.04- 79.9- 73.6- 5.9-
2024-05-30 04:18 amENE 6.0 7.0----30.03- 79.9- 73.9- 5.9-
2024-05-30 04:12 amENE 7.0 8.0----30.03- 80.1- 73.4- 5.9-
2024-05-30 04:06 amENE 7.0 8.0----30.03- 80.1- 74.8- 5.9-
2024-05-30 04:00 amENE 7.0 7.0----30.03+0.02 80.1- 74.7- 5.9-
2024-05-30 03:54 am NE 7.0 8.0----30.03- 80.1- 74.7- 5.9-
2024-05-30 03:48 am NE 6.0 7.0----30.03----- 5.9-
2024-05-30 03:42 am NE 7.0 7.0----30.03----- 5.9-
2024-05-30 03:36 am NE 6.0 7.0----30.03----- 5.9-
2024-05-30 03:30 am NE 6.0 7.0----30.03- 79.9- 73.8- 5.9-
2024-05-30 03:24 am NE 7.0 7.0----30.03- 79.9- 73.2- 5.9-
2024-05-30 03:18 am NE 7.0 8.0----30.03- 79.7- 73.4- 5.9-
2024-05-30 03:12 amNNE 7.0 8.9----30.03- 79.5- 74.1- 5.9-
2024-05-30 03:06 amNNE 8.9 9.9----30.03- 79.7- 74.1- 5.9-
2024-05-30 03:00 amNNE 8.0 8.9----30.03+0.00 80.1- 74.8- 5.9-
2024-05-30 02:54 amNNE 8.0 8.9----30.03- 80.6- 75.4- 5.9-
2024-05-30 02:48 am NE 6.0 8.0----30.03----- 5.9-
2024-05-30 02:42 am NE 6.0 7.0----30.02----- 5.9-
2024-05-30 02:36 amNNE 6.0 8.0----30.02----- 5.9-
2024-05-30 02:30 am NE 7.0 8.0----30.02- 80.6- 74.1- 5.9-
2024-05-30 02:24 am NE 7.0 8.0----30.02- 80.6- 73.6- 5.9-
2024-05-30 02:18 am NE 6.0 7.0----30.02- 80.4- 73.9- 5.9-
2024-05-30 02:12 am NE 7.0 8.0----30.02- 80.4- 74.5- 5.9-
2024-05-30 02:06 am NE 8.0 8.0----30.02- 80.4- 74.1- 5.9-
2024-05-30 02:00 amNNE 7.0 8.0----30.02-0.05 80.6- 74.8- 5.9-
2024-05-30 01:54 am NE 7.0 8.0----30.02- 80.6- 74.7- 5.9-
2024-05-30 01:48 am NE 4.1 7.0----30.02- 79.9- 75.4- 5.9-
2024-05-30 01:42 am E 1.9 4.1----30.02- 79.7- 75.4- 5.9-
2024-05-30 01:36 amENE 4.1 6.0----30.01- 79.5- 75.0- 5.9-
2024-05-30 01:30 amENE 5.1 7.0----30.01- 79.5- 74.7- 5.9-
2024-05-30 01:24 amENE 5.1 7.0----30.01- 79.5- 74.5- 5.9-
2024-05-30 01:18 amENE 7.0 8.9----30.01- 79.5- 74.7- 5.9-
2024-05-30 01:12 amENE 8.0 8.9----30.01- 79.5- 74.8- 5.9-
2024-05-30 01:06 am E 8.0 11.1----30.01- 79.7- 75.4- 5.9-
2024-05-30 01:00 am E 8.9 9.9----30.01-0.08 79.7- 75.0- 5.9-
2024-05-30 12:54 am E 8.0 8.9----30.01- 79.7- 74.8- 5.9-
2024-05-30 12:42 amESE 2.9 6.0----30.02----- 5.9-
2024-05-30 12:36 amESE 6.0 8.9----30.02----- 5.9-
2024-05-30 12:30 am E 8.0 9.9----30.02- 79.7- 75.2- 5.9-
2024-05-30 12:24 amENE 8.0 8.9----30.03- 79.7- 74.7- 5.9-
2024-05-30 12:18 amENE 7.0 8.9----30.03- 79.9- 75.7- 5.9-
2024-05-30 12:12 amENE 8.0 13.0----30.03- 79.9- 75.2- 5.9-
2024-05-30 12:06 amENE 13.0 14.0----30.02- 79.7- 74.8- 5.9-
2024-05-30 12:00 amENE 12.0 13.0----30.02-0.06 79.3- 74.7- 5.9-
2024-05-29 11:54 pm NE 8.9 11.1----30.03- 79.2- 74.5- 5.9-
2024-05-29 11:48 pm NE 9.9 11.1----30.03----- 5.9-
2024-05-29 11:42 pmNNE 9.9 11.1----30.04----- 5.9-
2024-05-29 11:36 pm N 8.9 11.1----30.05----- 5.9-
2024-05-29 11:30 pm N 9.9 11.1----30.05- 78.6- 73.4- 5.9-
2024-05-29 11:24 pmNNW 9.9 12.0----30.06- 78.8- 73.6- 5.9-
2024-05-29 11:18 pmNNW 11.1 13.0----30.06- 78.8- 73.4- 5.9-
2024-05-29 11:12 pmNNW 11.1 13.0----30.07- 78.8- 73.9- 5.9-
2024-05-29 11:06 pmNNW 12.0 13.0----30.07- 79.2- 74.1- 5.9-
2024-05-29 11:00 pmNNW 12.0 15.0----30.07+0.02 79.2- 72.5- 5.9-
2024-05-29 10:54 pmNNW 12.0 15.0----30.08- 79.9- 73.4- 5.9-
2024-05-29 10:48 pm NW 12.0 15.0----30.08- 80.1- 73.2- 5.9-
2024-05-29 10:42 pm NW 15.0 15.9----30.08- 80.2- 72.7- 5.9-
2024-05-29 10:36 pm NW 14.0 15.9----30.08- 80.2- 73.0- 5.9-
2024-05-29 10:30 pm NW 13.0 15.0----30.09- 80.4- 73.6- 5.9-
2024-05-29 10:24 pm NW 14.0 17.1----30.09- 81.1- 75.0- 5.9-
2024-05-29 10:18 pm NW 14.0 17.1----30.09- 81.5- 74.8- 5.9-
2024-05-29 10:12 pm NW 12.0 15.0----30.08- 82.0- 75.7- 5.9-
2024-05-29 10:06 pm NW 15.0 15.9----30.09- 82.0- 75.4- 5.9-
2024-05-29 10:00 pm NW 9.9 12.0----30.09+0.04 83.3- 76.1- 5.9-
2024-05-29 09:54 pm NW 7.0 8.0----30.09- 83.5- 76.1- 5.9-
2024-05-29 09:48 pmWNW 6.0 6.0----30.09- 82.9- 76.3- 5.9-
2024-05-29 09:42 pmWNW 4.1 4.1----30.09- 81.7- 77.7- 5.9-
2024-05-29 09:36 pm W 2.9 4.1----30.09- 81.7- 78.1- 5.9-
2024-05-29 09:30 pm W 2.9 4.1----30.09- 81.5- 77.9- 5.9-
2024-05-29 09:24 pm W 2.9 2.9----30.08- 81.7- 78.4- 5.9-
2024-05-29 09:18 pm W 1.9 1.9----30.08- 81.3- 77.9- 5.9-
2024-05-29 09:12 pm W 1.9 2.9----30.08- 81.0- 77.2- 5.9-
2024-05-29 09:06 pm W 2.9 2.9----30.08- 80.8- 77.2- 5.9-
2024-05-29 09:00 pmWSW 2.9 2.9----30.08+0.04 81.0- 77.5- 5.9-
2024-05-29 08:54 pm W 1.9 2.9----30.07- 81.5- 77.5- 5.9-
2024-05-29 08:48 pm NW 1.9 1.9----30.07- 82.9- 77.2- 5.9-
2024-05-29 08:42 pm N 1.9 1.9----30.07- 82.6- 76.1- 5.9-
2024-05-29 08:36 pm- 0.0 0.0----30.07- 82.4- 74.1- 5.9-
2024-05-29 08:30 pm- 0.0 0.0----30.06- 82.0- 73.9- 5.9-
2024-05-29 08:24 pm- 0.0 0.0----30.06- 81.9- 75.0- 5.9-
2024-05-29 08:18 pm- 0.0 0.0----30.06- 82.6- 75.9- 5.9-
2024-05-29 08:12 pm- 0.0 0.0----30.06- 82.6- 75.2- 5.9-
2024-05-29 08:06 pm- 0.0 1.9----30.06- 82.9- 75.2- 5.9-
2024-05-29 08:00 pmESE 1.9 1.9----30.05+0.00 82.9- 75.0- 5.9-
2024-05-29 07:54 pmESE 1.9 2.9----30.05- 83.1- 74.5- 5.9-
2024-05-29 07:48 pmSSE 1.9 2.9----30.06- 83.3- 74.1- 5.9-
2024-05-29 07:42 pmSSE 1.9 4.1----30.05- 83.3- 73.9- 5.9-
2024-05-29 07:36 pmSSE 2.9 2.9----30.05- 83.3- 73.6- 5.9-
2024-05-29 07:30 pm S 1.9 2.9----30.05- 83.5- 73.8- 5.9-
2024-05-29 07:24 pmSSE 1.9 2.9----30.05- 83.5- 74.3- 5.9-
2024-05-29 07:18 pmSSE 1.9 4.1----30.05- 83.7- 73.9- 5.9-
2024-05-29 07:12 pm S 2.9 4.1----30.05- 83.7- 73.4- 5.9-
2024-05-29 07:06 pm S 4.1 6.0----30.05- 83.8- 73.6- 5.9-
2024-05-29 07:00 pmSSE 2.9 6.0----30.05-0.01 83.8- 73.2- 5.9-
2024-05-29 06:54 pmSSE 2.9 7.0----30.04- 84.0- 73.0- 5.9-
2024-05-29 06:48 pm SE 5.1 6.0----30.04----- 5.9-
2024-05-29 06:42 pmSSE 5.1 8.0----30.04----- 5.9-
2024-05-29 06:36 pm SE 5.1 8.0----30.04----- 5.9-
2024-05-29 06:30 pm SE 6.0 8.9----30.04- 84.2- 72.1- 5.9-
2024-05-29 06:24 pmSSE 5.1 8.9----30.03- 84.4- 73.2- 5.9-
2024-05-29 06:18 pm SE 5.1 8.9----30.03- 84.4- 72.7- 5.9-
2024-05-29 06:12 pmSSE 6.0 8.9----30.03- 84.6- 72.5- 5.9-
2024-05-29 06:06 pm SE 7.0 8.9----30.03- 84.6- 72.9- 5.9-
2024-05-29 06:00 pm SE 6.0 8.9----30.03-0.05 84.6- 72.1- 5.9-
2024-05-29 05:54 pm SE 7.0 8.9----30.03- 85.3- 71.4- 5.9-